Regional Weather Roundup
Issued by NWS Austin/San Antonio, TX

Current Version | Previous Version | Text Only | Print | Product List | Glossary On
Versions: 1 2 3 4 5 6 7 8 9 10 11 12 13 14 15 16 17 18 19 20 21 22 23 24 25 26 27 28 29 30 31 32 33 34 35 36 37 38 39 40 41 42 43 44 45 46 47 48 49 50
000
ASUS44 KEWX 180410
RWREWX
SOUTH TEXAS REGIONAL WEATHER ROUNDUP
NATIONAL WEATHER SERVICE AUSTIN/SAN ANTONIO TX
1100 PM CDT THU JUN 17 2021

NOTE: "FAIR" INDICATED FEW OR NO CLOUDS BELOW 12,000 FEET WITH NO
SIGNIFICANT WEATHER AND/OR OBSTRUCTIONS TO VISIBILITY.

* - THESE STATIONS ARE NOT NWS OR FAA STATIONS...AND ARE NOT SUBJECT
    TO NWS AND FAA QUALITY CONTROL.

TXZ171-172-183>190-180500-
TEXAS HILL COUNTRY AND EDWARDS PLATEAU

CITY           SKY/WX    TMP DP  RH WIND       PRES   REMARKS
JUNCTION       CLEAR     82  64  54 E5        30.04R
*LLANO         PTCLDY    77  66  69 CALM      30.00R
BURNET         CLEAR     81  64  56 E3        30.03R
*HORSESHOE BAY CLEAR     79  65  62 S3        30.00S
*LAGO VISTA    CLEAR     81  66  61 E6        30.02R
*KERRVILLE     CLEAR     75  68  79 CALM      30.03R
*FREDERICKSBRG CLEAR     73  62  69 CALM      30.04R
*ROCKSPRINGS     N/A     77  63  61 MISG      30.10R
*BOERNE        CLEAR     72  64  78 CALM      30.02R
*CASTROVILLE   CLEAR     81  69  66 S3        30.00R
HONDO          CLEAR     80  67  64 SE8       29.99R
*UVALDE        CLEAR     78  66  65 SE6       30.00R
DEL RIO        CLEAR     90  62  39 E8        29.96R HX  90
*LAUGHLIN AFB  CLEAR     84  62  46 SE6       29.97R
*SPOFFORD      CLEAR     81  61  50 E6        29.91R
*EAGLE PASS    CLEAR     82  59  44 E6        29.96R
CARRIZO SPRGS  PTCLDY    82  66  57 SE6       29.95R
$$

TXZ173-191>194-202-209-217>225-228-180500-
CENTRAL AND SOUTH CENTRAL TEXAS

CITY           SKY/WX    TMP DP  RH WIND       PRES   REMARKS
GEORGETOWN     CLOUDY    84  71  65 NE3       30.01R
*TAYLOR        CLEAR     82  70  66 SE5       29.98S
AUSTIN/BERGSTM PTCLDY    82  71  69 E3        29.97R
AUSTIN/MABRY   CLEAR     85  68  56 E3        29.99R
*PFLUGERVILLE  MOCLDY    81  72  74 CALM      29.97S
SAN MARCOS     CLEAR     78  73  84 E3        29.98R
NEW BRAUNFELS  PTCLDY    82  71  69 SE10      29.97R
*RANDOLPH AFB  CLEAR     82  70  68 SW8       29.97R
*SEGUIN        PTCLDY    79  72  79 S6        30.01R
SAN ANTONIO    PTCLDY    84  68  58 S10       29.98R
STINSON FIELD  CLEAR     83  72  69 CALM      29.95R
*KELLY FIELD   CLEAR     79  71  75 S5        29.96R
*PLEASANTON    CLEAR     81  71  73 CALM      29.97R
*KENEDY        CLEAR     80  72  77 SE3       29.97R
*LA GRANGE     CLEAR     82  77  85 CALM      29.96R
*GIDDINGS      CLEAR     81  73  75 E6        29.99R
*GONZALES      MOCLDY    81  73  76 E5        29.97R
$$

TXZ163>164-176>182-195>201-210>213-226-227-235-180500-
SOUTHEAST TEXAS

CITY           SKY/WX    TMP DP  RH WIND       PRES   REMARKS
COLLEGE STN    CLEAR     84  72  67 E5        29.97S
*BRYAN         CLEAR     80  74  80 E5        29.99S
*CALDWELL      CLEAR     80  74  82 CALM      29.98S
*CROCKETT      CLEAR     75  72  88 CALM      29.98S
*BRENHAM       MOCLDY    82  75  78 CALM      29.97S
HUNTSVILLE     CLEAR     80  71  74 CALM      29.98S
CONROE         CLEAR     77  71  82 SE5       29.98R
HOUSTON BUSH   PTCLDY    79  66  65 SE6       29.97R
HOUSTON HOBBY  CLEAR     83  66  56 E6        29.96R
*HOUSTON SW AP CLEAR     79  67  67 CALM      29.97S
PEARLAND       CLEAR     80  67  64 E5        29.97S
HOUSTON HOOKS  CLEAR     81  68  64 SE5       29.97R
ELLINGTON FLD  PTCLDY    81  68  65 CALM      29.96S
SUGAR LAND     CLEAR     82  67  60 E5        29.96S
*HOUSTON EXEC  NOT AVBL
*CLEVELAND MUN MOCLDY    74  73  94 CALM      29.99S
*WHARTON         N/A     76  68  75 E3        29.97R
*COLUMBUS      FAIR      79  74  85 CALM      29.98R
*EAGLE LAKE    NOT AVBL
$$

TXZ214>216-236>238-180500-
THE UPPER TEXAS COAST

CITY           SKY/WX    TMP DP  RH WIND       PRES   REMARKS
*ORANGE        CLEAR     74  67  80 CALM      29.99S
PORT ARTHUR    CLEAR     76  66  71 E5        29.96S
GALVESTON      CLEAR     85  63  47 E12       29.96R
ANGLETON       CLEAR     78  67  68 E3        29.96R
*BAY CITY      CLEAR     76  68  77 E5        29.95S
PALACIOS       CLEAR     79  70  74 E6        29.94R
$$

TXZ229>234-239>247-180500-
TEXAS COASTAL BEND AND RIO GRANDE PLAINS

CITY           SKY/WX    TMP DP  RH WIND       PRES   REMARKS
VICTORIA       CLEAR     80  73  79 SE5       29.96R
*BEEVILLE      CLEAR     76  76 100 CALM      29.95R
ROCKPORT       PTCLDY    85  70  60 E14       29.93S
*PORT ARANSAS  CLEAR     85  68  57 E13G20    29.95R
*PORT LAVACA   MOCLDY    84  68  58 E9        29.94R
*INGLESIDE     PTCLDY    85  68  57 SE9       29.93S
CORPUS CHRISTI MOCLDY    84  68  58 E10       29.94R
CORPUS NAS     MOCLDY    85  69  58 E13       29.93R
*ROBSTOWN      PTCLDY    83  75  77 E5        29.95R HX  90
ALICE          NOT AVBL
KINGSVILLE NAS MOCLDY    78  73  84 CALM      29.94R
COTULLA        PTCLDY    83  68  60 SE3       29.96R
LAREDO         NOT AVBL
$$

TXZ248>255-180500-
DEEP SOUTH TEXAS

CITY           SKY/WX    TMP DP  RH WIND       PRES   REMARKS
BROWNSVILLE    NOT AVBL
PORT ISABEL    PTCLDY    81  73  76 NE5       29.93R
HARLINGEN      NOT AVBL
*HEBBRONVILLE  PTCLDY    78  61  55 SE3       29.98S
MCALLEN        NOT AVBL
*WESLACO       MOCLDY    82  72  73 E3        29.94R
FALFURRIAS     PTCLDY    75  71  86 CALM      29.95R
EDINBURG       PTCLDY    80  74  83 CALM      29.95R
*ZAPATA        PTCLDY    85  69  57 CALM      29.97R
$$

TXZ213>215-236>238-242>244-246-247-251-254-255-180500-
CMAN STATIONS

STATION/POSITION TIME  TEMP    WIND        PRES    WAVE
                       AIR SEA DIR/SP/G            HT/PER
                 (UTC) (F)     (DEG/KT/KT) (MB)    (FT/S)
NORTH JETTY/GLS  0330   85 86  100/ 15/ 19 1013.2
EAGLE POINT      0330   85 87  100/ 13/ 17 1014.0
MORGANS POINT    0324   84 85  100/  7/ 10 1014.7
MISSION/ARANSAS  0300   86      70/ 13     1014.0
PORT O`CONNOR    0330   85 90  100/ 16/ 19 1013.2
PORT ARANSAS     0400   85 86  100/ 16/ 18   N/A
MALAQUITE BEACH  0330   85      50/ 15/ 17   N/A
BAFFIN BAY       0330   85 90   50/ 12/ 14 1013.1
PORT ISABEL      0330   84 85   40/  4/  9 1014.2
$$



USA.gov is the U.S. government's official web portal to all federal, state and local government web resources and services.